Regional Weather Roundup
Issued by NWS

Home | Current Version | Previous Version | Text Only | Print | Product List | Glossary On
Versions: 1 2 3 4 5 6 7 8 9 10 11 12 13 14 15 16 17 18 19 20 21 22 23 24 25 26 27 28 29 30 31 32 33 34 35 36 37 38 39 40 41 42 43 44 45 46 47 48 49 50
989
ASCA44 KEWX 120220
RWRMX

LATIN AMERICA AND CARIBBEAN REGIONAL WEATHER ROUNDUP
NATIONAL WEATHER SERVICE AUSTIN/SAN ANTONIO TX
800 PM CST MON NOV 11 2019

NOTE: "FAIR" INDICATED FEW OR NO CLOUDS BELOW 12,000 FEET WITH NO
SIGNIFICANT WEATHER AND/OR OBSTRUCTIONS TO VISIBILITY.

BAJA CALIFORNIA

CITY           SKY/WX    TMP DP  RH WIND       PRES   REMARKS
LORETO         PTCLDY    79  68  69 SE9       29.92R
LA PAZ         MOCLDY    72  66  83 SW6       29.96
MEXICALI       CLEAR     77  21  12 NW5       29.95
S.J. DEL CABO  CLOUDY    70  66  88 NW6       29.95F
TIJUANA        CLEAR     59  55  88 NW7       30.05R

NORTHWESTERN MEXICO

CITY           SKY/WX    TMP DP  RH WIND       PRES   REMARKS
CULIACAN       CLOUDY    72  66  83 N7        29.93
DURANGO        CLOUDY    63  46  55 W3        30.24
GUAYMAS        CLEAR     75  68  78 S9        29.89
HERMOSILLO     CLEAR     77  50  38 W5        29.96
CD. JUAREZ     CLOUDY    41  27  56 E22       30.37  WCI  31
LOS MOCHIS     PTCLDY    75  63  64 CALM      29.95R
OBREGON        CLEAR     73  63  68 SW5       29.92

NORTHEASTERN MEXICO

CITY           SKY/WX    TMP DP  RH WIND       PRES   REMARKS
CHIHUAHUA      CLOUDY    59  54  82 N14       30.20
MATAMOROS      CLOUDY    77  72  83 E7        30.03
MONCLOVA         N/A    N/A N/A N/A MISG        N/A
MONTERREY      CLOUDY    70  64  83 NW17G29   30.09R
NUEVO LAREDO   CLOUDY    52  45  76 N23G36    30.25
PIEDRAS NEGRAS   N/A    N/A N/A N/A MISG        N/A
REYNOSA        TSTM      75  68  78 CALM      30.05
SALTILLO         N/A    N/A N/A N/A MISG        N/A
TORREON        CLOUDY    77  52  41 NW6       30.07R
CD. VICTORIA   MOCLDY    77  66  69 NW7       30.00

WESTERN MEXICO

CITY           SKY/WX    TMP DP  RH WIND       PRES   REMARKS
AGUASCALIENTES MOCLDY    68  36  30 SE3       30.21R
COLIMA         MOCLDY    75  73  94 CALM      29.97R
DEL BAJIO      MOCLDY    66  50  55 NE6       30.23R
GUADALAJARA    MOCLDY    68  54  60 CALM      30.14
MANZANILLO     CLEAR     82  77  83 CALM      29.83R HX  91
MAZATLAN       CLOUDY    82  61  47 NW7       29.88R
P. VALLARTA    MOCLDY    82  75  78 NE3       29.86R
URUAPAN          N/A    N/A N/A N/A MISG        N/A
ZACATECAS      MOCLDY    64  41  42 S7        30.23R

CENTRAL MEXICO

CITY           SKY/WX    TMP DP  RH WIND       PRES   REMARKS
CUERNAVACA       N/A    N/A N/A N/A MISG        N/A
MEXICO CITY    MOCLDY    68  45  42 NE10      30.32R
MORELIA        MOCLDY    64  59  82 S5        30.20
POZA RICA        N/A    N/A N/A N/A MISG        N/A
PUEBLA         MOCLDY    59  50  72 N6        30.33R
QUERETARO      MOCLDY    64  50  59 SE8       30.29R
S. LUIS POTOSI PTCLDY    66  45  45 CALM      30.19R
TAMPICO        CLOUDY    77  75  94 MISG      29.96R
TOLUCA         MOCLDY    54  48  82 NW12      30.40R

SOUTHERN MEXICO

CITY           SKY/WX    TMP DP  RH WIND       PRES   REMARKS
ACAPULCO       MOCLDY    84  77  79 W5        29.84R HX  94
B. DE HUATULCO   N/A    N/A N/A N/A MISG        N/A
OAXACA         PTCLDY    72  46  40 S5        30.17R
P. ESCONDIDO   PTCLDY    84  73  70 NE3       29.87R HX  91
VERACRUZ       PTCLDY    77  73  88 E5        29.94R
ZIHUATANEJO    PTCLDY    84  77  79 CALM      29.84R HX  94

YUCATAN PENINSULA

CITY           SKY/WX    TMP DP  RH WIND       PRES   REMARKS
CAMPECHE       CLEAR     79  75  89 N12       29.92R
CANCUN         PTCLDY    75  75 100 CALM      29.93R
CHETUMAL         N/A    N/A N/A N/A MISG        N/A
CD. DEL CARMEN PTCLDY    81  72  74 N5        29.92
COZUMEL        MOCLDY    79  77  94 E5        29.90R
MERIDA         CLEAR     79  75  89 NE5       29.92R
MINATITLAN       N/A    N/A N/A N/A MISG        N/A
TAPACHULA      PTCLDY    81  77  89 E6        29.87R
TUX. GUTIERREZ PTCLDY    72  68  88 CALM      29.97R
VILLAHERMOSA   CLEAR     75  73  94 CALM      29.94R

CENTRAL AMERICA

CITY           SKY/WX    TMP DP  RH WIND       PRES   REMARKS
MANAGUA        PTCLDY    81  73  78 SE7       29.83S

CARIBBEAN

CITY           SKY/WX    TMP DP  RH WIND       PRES   REMARKS
ARUBA          PTCLDY    82  77  83 E15       29.83S HX  91
CURACAO        PTCLDY    82  75  78 E14       29.86R
KINGSTON       PTCLDY    81  70  69 W3        29.89S
NASSAU         PTCLDY    77  66  69 E8        30.05R
SAN JUAN       PTCLDY    81  73  78 SE3       29.95S
SANTO DOMINGO  PTCLDY    77  73  88 NE6       29.92S
ST. CROIX      CLEAR     79  72  78 NE8       29.95
ST. MAARTEN    PTCLDY    82  72  69 E10       29.94S
ST. THOMAS     CLEAR     81  72  74 E6        29.94

$$





USA.gov is the U.S. government's official web portal to all federal, state and local government web resources and services.